Location: Unspecified
(41.1637°N, 24.2901°E)
Time: 16:50:30
(UTC+02:00)

ISS - Pass Details

Date: 23 September 2023
Orbit: 414 x 421 km, 51.6° (Epoch: 01 October)

Event Time Altitude Azimuth Distance (km) Brightness Sun altitude
Rises 19:11:44 0° 295° (WNW) 2,353 1.7 -10.7°
Reaches altitude 10° 19:14:37 10° 322° (NW) 1,493 -0.2 -11.2°
Maximum altitude 19:16:28 14° 356° (N) 1,277 -1.1 -11.6°
Drops below altitude 10° 19:18:20 10° 30° (NNE) 1,496 -1.2 -11.9°
Enters shadow 19:19:27 - 43° (NE) 1,787 -0.9 -12.1°
